QPF
0.05 0.06 0.06 0.06 0.07 0.05 0.02 0.01 0.01 0.01 0.01 0.01 0.01 0.01 0.01 0.01 0.01 0.01 0.01 0.02 0.02 0.02 0.03 0.03 0.04 0.06 0.08 0.08 0.06 0.05 0.04 0.03 0.02 0.02 0.02 0.03 0.02 0.02 0.02 0.03 0.03 0.02 0.01
0.07 0.07 0.08 0.08 0.08 0.07 0.05 0.02 0.02 0.02 0.02 0.02 0.01 0.02 0.02 0.02 0.02 0.02 0.01 0.02 0.01 0.01 0.02 0.03 0.03 0.05 0.07 0.09 0.09 0.08 0.06 0.03 0.03 0.03 0.03 0.02 0.02 0.02 0.02 0.02 0.02 0.03 0.03
0.05 0.07 0.07 0.08 0.10 0.10 0.07 0.03 0.02 0.02 0.02 0.03 0.02 0.02 0.03 0.02 0.02 0.02 0.02 0.01 0.01 0.01 0.01 0.02 0.03 0.03 0.05 0.07 0.09 0.08 0.07 0.04 0.03 0.03 0.03 0.02 0.02 0.03 0.02 0.02 0.02 0.03 0.03
0.02 0.04 0.05 0.06 0.08 0.09 0.09 0.06 0.04 0.03 0.03 0.03 0.03 0.03 0.03 0.03 0.03 0.03 0.03 0.03 0.01 0.01 0.01 0.01 0.02 0.03 0.03 0.06 0.09 0.09 0.08 0.05 0.04 0.04 0.03 0.02 0.02 0.03 0.04 0.04 0.03 0.02 0.02
0.03 0.03 0.03 0.04 0.05 0.06 0.08 0.09 0.08 0.05 0.03 0.03 0.04 0.03 0.03 0.03 0.03 0.04 0.03 0.03 0.03 0.02 0.01 0.01 0.01 0.01 0.02 0.04 0.07 0.09 0.09 0.07 0.05 0.04 0.04 0.05 0.04 0.03 0.03 0.04 0.05 0.04 0.03
0.07 0.04 0.02 0.03 0.04 0.04 0.04 0.06 0.10 0.08 0.04 0.03 0.03 0.03 0.02 0.02 0.02 0.03 0.04 0.04 0.03 0.04 0.03 0.01 0.01 0.01 0.01 0.03 0.04 0.07 0.07 0.08 0.08 0.06 0.05 0.04 0.03 0.04 0.04 0.04 0.04 0.05 0.05
0.06 0.07 0.05 0.03 0.03 0.04 0.03 0.04 0.07 0.09 0.08 0.05 0.03 0.03 0.02 0.01 0.01 0.01 0.02 0.04 0.04 0.04 0.05 0.04 0.02 0.01 0.01 0.02 0.04 0.05 0.05 0.07 0.08 0.05 0.04 0.04 0.04 0.04 0.04 0.04 0.03 0.03 0.03
0.03 0.04 0.05 0.05 0.04 0.03 0.04 0.03 0.04 0.07 0.09 0.07 0.05 0.04 0.03 0.02 0.01 0.01 0.01 0.02 0.03 0.04 0.05 0.06 0.05 0.03 0.01 0.01 0.02 0.03 0.04 0.06 0.07 0.07 0.04 0.03 0.03 0.03 0.03 0.03 0.03 0.03 0.03
0.04 0.03 0.03 0.03 0.03 0.03 0.03 0.03 0.04 0.05 0.06 0.08 0.07 0.06 0.05 0.03 0.02 0.02 0.01 0.01 0.02 0.02 0.04 0.06 0.07 0.07 0.05 0.03 0.02 0.02 0.02 0.04 0.06 0.07 0.05 0.03 0.02 0.02 0.02 0.02 0.03 0.03 0.03
0.04 0.04 0.03 0.02 0.02 0.02 0.02 0.03 0.03 0.05 0.04 0.05 0.07 0.07 0.06 0.04 0.03 0.03 0.02 0.01 0.01 0.02 0.02 0.03 0.06 0.07 0.07 0.06 0.04 0.03 0.02 0.03 0.05 0.06 0.06 0.04 0.03 0.02 0.02 0.01 0.02 0.03 0.03
0.04 0.03 0.03 0.03 0.02 0.02 0.02 0.03 0.03 0.04 0.05 0.05 0.05 0.06 0.06 0.05 0.04 0.03 0.02 0.01 0.01 0.01 0.02 0.02 0.03 0.05 0.05 0.06 0.05 0.04 0.03 0.03 0.03 0.04 0.06 0.06 0.04 0.03 0.03 0.03 0.02 0.03 0.03
0.04 0.04 0.04 0.03 0.03 0.02 0.02 0.02 0.02 0.02 0.04 0.05 0.05 0.06 0.06 0.05 0.04 0.04 0.03 0.02 0.01 0.01 0.01 0.02 0.03 0.04 0.04 0.04 0.04 0.04 0.04 0.04 0.03 0.04 0.05 0.05 0.05 0.04 0.04 0.04 0.04 0.04 0.04
0.03 0.04 0.04 0.04 0.03 0.02 0.02 0.02 0.01 0.01 0.02 0.03 0.03 0.04 0.05 0.05 0.04 0.04 0.04 0.03 0.01 0.01 0.01 0.02 0.03 0.03 0.03 0.05 0.04 0.03 0.03 0.03 0.03 0.04 0.04 0.05 0.05 0.04 0.04 0.04 0.04 0.04 0.04
0.02 0.02 0.03 0.03 0.04 0.04 0.02 0.02 0.01 0.01 0.01 0.01 0.01 0.02 0.02 0.03 0.04 0.04 0.04 0.04 0.04 0.03 0.02 0.02 0.02 0.03 0.03 0.04 0.05 0.05 0.03 0.03 0.02 0.03 0.04 0.05 0.05 0.04 0.03 0.03 0.03 0.03 0.03
0.02 0.01 0.02 0.03 0.03 0.04 0.04 0.03 0.02 0.01 0.01 0.01 0.01 0.01 0.02 0.02 0.02 0.03 0.03 0.04 0.05 0.05 0.04 0.03 0.03 0.03 0.04 0.04 0.05 0.06 0.06 0.05 0.03 0.03 0.03 0.04 0.04 0.04 0.03 0.03 0.03 0.02 0.02
0.01 0.01 0.01 0.01 0.02 0.04 0.05 0.04 0.03 0.02 0.01 0.01 0.01 0.01 0.01 0.01 0.01 0.02 0.02 0.03 0.04 0.04 0.03 0.02 0.02 0.03 0.04 0.05 0.05 0.05 0.05 0.06 0.06 0.04 0.03 0.03 0.03 0.03 0.03 0.03 0.03 0.03 0.02
0.01 0.01 0.01 0.02 0.02 0.03 0.04 0.04 0.04 0.03 0.02 0.01 0.01 0.01 0.01 0.01 0.02 0.01 0.02 0.02 0.03 0.04 0.04 0.02 0.02 0.02 0.03 0.04 0.04 0.05 0.05 0.05 0.05 0.06 0.05 0.04 0.03 0.03 0.03 0.02 0.02 0.03 0.03
0.01 0.01 0.01 0.01 0.02 0.02 0.03 0.03 0.03 0.04 0.03 0.02 0.01 0.01 0.01 0.02 0.02 0.02 0.02 0.02 0.02 0.02 0.03 0.02 0.02 0.02 0.02 0.03 0.03 0.04 0.05 0.05 0.05 0.04 0.05 0.05 0.04 0.04 0.04 0.03 0.03 0.02 0.02
0.01 0.01 0.01 0.01 0.01 0.02 0.02 0.03 0.03 0.03 0.03 0.03 0.03 0.02 0.02 0.02 0.02 0.02 0.02 0.02 0.02 0.03 0.03 0.03 0.03 0.03 0.03 0.03 0.03 0.04 0.04 0.05 0.05 0.05 0.04 0.05 0.05 0.05 0.05 0.04 0.04 0.03 0.02
0.01 0.01 0.01 0.02 0.02 0.02 0.02 0.02 0.03 0.03 0.03 0.03 0.03 0.03 0.03 0.03 0.03 0.03 0.03 0.02 0.02 0.03 0.03 0.04 0.04 0.04 0.04 0.04 0.04 0.04 0.04 0.04 0.04 0.04 0.05 0.05 0.05 0.05 0.06 0.05 0.05 0.04 0.03
0.01 0.01 0.01 0.01 0.01 0.02 0.02 0.03 0.03 0.04 0.04 0.03 0.03 0.02 0.02 0.03 0.03 0.04 0.04 0.04 0.04 0.04 0.05 0.04 0.04 0.05 0.05 0.05 0.06 0.05 0.04 0.04 0.05 0.04 0.04 0.05 0.05 0.05 0.05 0.06 0.06 0.06 0.04
0.00 0.01 0.01 0.01 0.01 0.02 0.03 0.04 0.05 0.05 0.05 0.04 0.04 0.03 0.02 0.02 0.02 0.03 0.04 0.04 0.05 0.04 0.04 0.05 0.04 0.04 0.05 0.04 0.04 0.05 0.05 0.05 0.06 0.05 0.04 0.05 0.05 0.06 0.05 0.05 0.07 0.07 0.06
0.00 0.01 0.01 0.01 0.02 0.02 0.03 0.04 0.05 0.05 0.05 0.04 0.04 0.03 0.03 0.02 0.02 0.02 0.02 0.03 0.04 0.04 0.03 0.04 0.05 0.03 0.04 0.04 0.03 0.04 0.04 0.04 0.04 0.04 0.04 0.06 0.06 0.06 0.06 0.06 0.06 0.06 0.06
0.01 0.01 0.01 0.01 0.02 0.02 0.03 0.04 0.04 0.04 0.04 0.04 0.03 0.03 0.03 0.02 0.02 0.02 0.02 0.03 0.03 0.04 0.03 0.03 0.04 0.03 0.03 0.03 0.04 0.04 0.03 0.04 0.04 0.04 0.05 0.06 0.05 0.05 0.04 0.05 0.06 0.05 0.05
0.01 0.01 0.02 0.02 0.03 0.03 0.03 0.04 0.04 0.04 0.04 0.04 0.03 0.03 0.03 0.03 0.03 0.04 0.04 0.03 0.03 0.05 0.05 0.05 0.05 0.05 0.05 0.05 0.06 0.07 0.07 0.07 0.06 0.06 0.06 0.06 0.05 0.05 0.05 0.04 0.04 0.05 0.05
0.01 0.01 0.02 0.02 0.02 0.03 0.03 0.04 0.04 0.04 0.05 0.04 0.04 0.04 0.04 0.04 0.04 0.04 0.04 0.04 0.04 0.04 0.05 0.07 0.07 0.07 0.07 0.07 0.08 0.08 0.07 0.07 0.07 0.06 0.05 0.04 0.04 0.05 0.06 0.07 0.05 0.05 0.05
MSLP
1019.44 1019.35 1019.22 1019.05 1018.87 1018.69 1018.52 1018.38 1018.28 1018.22 1018.20 1018.20 1018.23 1018.27 1018.32 1018.39 1018.47 1018.56 1018.65 1018.71 1018.76 1018.76 1018.71 1018.62 1018.48 1018.32 1018.14 1017.96 1017.79 1017.63 1017.51 1017.41 1017.33 1017.30 1017.29 1017.33 1017.42 1017.55 1017.71 1017.91 1018.13 1018.36 1018.58
1019.92 1019.78 1019.63 1019.47 1019.30 1019.13 1018.98 1018.86 1018.76 1018.69 1018.64 1018.62 1018.62 1018.65 1018.71 1018.79 1018.89 1019.00 1019.10 1019.19 1019.24 1019.24 1019.19 1019.08 1018.91 1018.72 1018.51 1018.30 1018.10 1017.93 1017.77 1017.65 1017.55 1017.47 1017.44 1017.43 1017.47 1017.54 1017.66 1017.81 1017.98 1018.17 1018.37
1020.45 1020.27 1020.09 1019.93 1019.77 1019.62 1019.50 1019.38 1019.28 1019.20 1019.13 1019.08 1019.05 1019.06 1019.11 1019.19 1019.30 1019.43 1019.56 1019.66 1019.73 1019.74 1019.68 1019.56 1019.38 1019.17 1018.95 1018.72 1018.50 1018.31 1018.14 1017.99 1017.87 1017.77 1017.69 1017.64 1017.62 1017.63 1017.68 1017.76 1017.87 1018.00 1018.14
1021.01 1020.81 1020.63 1020.46 1020.32 1020.19 1020.08 1019.97 1019.86 1019.76 1019.65 1019.56 1019.50 1019.47 1019.49 1019.56 1019.68 1019.82 1019.97 1020.10 1020.19 1020.21 1020.17 1020.06 1019.89 1019.67 1019.44 1019.21 1018.99 1018.79 1018.61 1018.45 1018.31 1018.18 1018.07 1017.97 1017.88 1017.82 1017.78 1017.77 1017.80 1017.85 1017.92
1021.61 1021.42 1021.24 1021.09 1020.97 1020.86 1020.75 1020.64 1020.51 1020.37 1020.22 1020.07 1019.96 1019.88 1019.87 1019.92 1020.03 1020.18 1020.35 1020.50 1020.62 1020.67 1020.66 1020.57 1020.42 1020.23 1020.01 1019.79 1019.58 1019.38 1019.19 1019.02 1018.86 1018.71 1018.55 1018.39 1018.24 1018.10 1017.97 1017.87 1017.79 1017.75 1017.74
1022.23 1022.07 1021.93 1021.81 1021.71 1021.62 1021.51 1021.39 1021.23 1021.04 1020.83 1020.63 1020.45 1020.33 1020.27 1020.29 1020.39 1020.54 1020.72 1020.90 1021.05 1021.14 1021.16 1021.11 1021.00 1020.84 1020.65 1020.45 1020.24 1020.05 1019.86 1019.68 1019.49 1019.30 1019.11 1018.89 1018.68 1018.46 1018.25 1018.05 1017.88 1017.73 1017.63
1022.86 1022.76 1022.67 1022.59 1022.52 1022.44 1022.34 1022.20 1022.01 1021.78 1021.52 1021.26 1021.02 1020.85 1020.75 1020.74 1020.82 1020.96 1021.14 1021.34 1021.51 1021.63 1021.70 1021.69 1021.62 1021.50 1021.34 1021.15 1020.96 1020.77 1020.57 1020.37 1020.16 1019.94 1019.70 1019.45 1019.17 1018.89 1018.61 1018.33 1018.07 1017.84 1017.64
1023.47 1023.45 1023.42 1023.39 1023.36 1023.30 1023.20 1023.04 1022.83 1022.56 1022.27 1021.97 1021.70 1021.48 1021.35 1021.31 1021.36 1021.49 1021.66 1021.85 1022.03 1022.18 1022.27 1022.30 1022.27 1022.18 1022.04 1021.88 1021.69 1021.49 1021.27 1021.05 1020.82 1020.57 1020.30 1020.01 1019.70 1019.38 1019.05 1018.71 1018.39 1018.08 1017.81
1024.06 1024.12 1024.16 1024.18 1024.17 1024.13 1024.03 1023.87 1023.65 1023.38 1023.07 1022.76 1022.48 1022.25 1022.10 1022.03 1022.05 1022.15 1022.30 1022.47 1022.64 1022.78 1022.89 1022.93 1022.92 1022.85 1022.73 1022.57 1022.38 1022.16 1021.93 1021.68 1021.41 1021.14 1020.85 1020.55 1020.23 1019.89 1019.55 1019.19 1018.83 1018.48 1018.15
1024.63 1024.76 1024.84 1024.90 1024.92 1024.89 1024.80 1024.65 1024.44 1024.18 1023.89 1023.60 1023.34 1023.12 1022.97 1022.89 1022.88 1022.94 1023.04 1023.17 1023.30 1023.42 1023.50 1023.55 1023.54 1023.47 1023.36 1023.19 1022.98 1022.75 1022.48 1022.21 1021.92 1021.63 1021.33 1021.03 1020.72 1020.40 1020.07 1019.73 1019.37 1019.00 1018.63
1025.19 1025.35 1025.47 1025.54 1025.57 1025.55 1025.47 1025.33 1025.14 1024.92 1024.68 1024.44 1024.22 1024.04 1023.90 1023.81 1023.78 1023.78 1023.83 1023.89 1023.97 1024.04 1024.09 1024.11 1024.08 1024.01 1023.89 1023.72 1023.49 1023.23 1022.94 1022.63 1022.32 1022.01 1021.71 1021.43 1021.15 1020.87 1020.58 1020.27 1019.94 1019.58 1019.20
1025.75 1025.91 1026.03 1026.10 1026.12 1026.08 1026.00 1025.88 1025.72 1025.55 1025.37 1025.20 1025.05 1024.91 1024.81 1024.72 1024.66 1024.61 1024.59 1024.58 1024.58 1024.59 1024.59 1024.58 1024.54 1024.45 1024.32 1024.13 1023.89 1023.60 1023.28 1022.94 1022.61 1022.29 1022.00 1021.73 1021.49 1021.25 1021.01 1020.75 1020.46 1020.14 1019.77
1026.31 1026.45 1026.54 1026.58 1026.56 1026.50 1026.41 1026.29 1026.16 1026.04 1025.93 1025.84 1025.75 1025.68 1025.60 1025.51 1025.43 1025.33 1025.24 1025.16 1025.08 1025.03 1024.98 1024.94 1024.88 1024.78 1024.65 1024.45 1024.19 1023.88 1023.54 1023.17 1022.81 1022.48 1022.19 1021.93 1021.72 1021.53 1021.34 1021.13 1020.89 1020.60 1020.26
1026.89 1026.98 1027.02 1027.00 1026.93 1026.83 1026.71 1026.58 1026.47 1026.39 1026.34 1026.31 1026.29 1026.26 1026.21 1026.13 1026.02 1025.88 1025.73 1025.58 1025.44 1025.33 1025.24 1025.18 1025.11 1025.02 1024.88 1024.69 1024.42 1024.10 1023.73 1023.34 1022.96 1022.60 1022.30 1022.05 1021.85 1021.69 1021.53 1021.37 1021.17 1020.92 1020.61
1027.47 1027.50 1027.48 1027.39 1027.26 1027.10 1026.94 1026.79 1026.68 1026.62 1026.60 1026.62 1026.64 1026.65 1026.62 1026.54 1026.41 1026.23 1026.03 1025.83 1025.65 1025.50 1025.39 1025.32 1025.26 1025.18 1025.06 1024.87 1024.61 1024.28 1023.89 1023.48 1023.06 1022.69 1022.36 1022.10 1021.90 1021.74 1021.60 1021.46 1021.29 1021.07 1020.79
1028.03 1028.00 1027.92 1027.77 1027.57 1027.35 1027.14 1026.96 1026.83 1026.76 1026.75 1026.79 1026.83 1026.86 1026.84 1026.76 1026.61 1026.40 1026.17 1025.93 1025.72 1025.56 1025.45 1025.39 1025.34 1025.29 1025.19 1025.02 1024.77 1024.43 1024.03 1023.60 1023.16 1022.75 1022.40 1022.11 1021.89 1021.72 1021.58 1021.44 1021.28 1021.07 1020.81
1028.53 1028.46 1028.33 1028.13 1027.87 1027.60 1027.33 1027.11 1026.95 1026.86 1026.84 1026.87 1026.91 1026.93 1026.90 1026.81 1026.64 1026.42 1026.17 1025.92 1025.71 1025.55 1025.45 1025.40 1025.38 1025.35 1025.28 1025.13 1024.89 1024.56 1024.15 1023.70 1023.24 1022.80 1022.42 1022.11 1021.86 1021.67 1021.51 1021.35 1021.18 1020.97 1020.73
1028.95 1028.86 1028.69 1028.45 1028.16 1027.84 1027.53 1027.27 1027.06 1026.94 1026.89 1026.89 1026.91 1026.91 1026.87 1026.76 1026.58 1026.35 1026.09 1025.84 1025.63 1025.49 1025.40 1025.38 1025.38 1025.38 1025.32 1025.19 1024.96 1024.64 1024.23 1023.77 1023.30 1022.85 1022.45 1022.11 1021.83 1021.61 1021.42 1021.25 1021.06 1020.84 1020.59
1029.25 1029.15 1028.97 1028.72 1028.41 1028.06 1027.72 1027.42 1027.18 1027.02 1026.93 1026.89 1026.88 1026.85 1026.78 1026.65 1026.46 1026.23 1025.97 1025.72 1025.52 1025.39 1025.32 1025.31 1025.33 1025.33 1025.29 1025.17 1024.95 1024.63 1024.23 1023.78 1023.30 1022.85 1022.45 1022.10 1021.81 1021.57 1021.36 1021.16 1020.95 1020.71 1020.46
1029.43 1029.33 1029.15 1028.90 1028.59 1028.23 1027.88 1027.55 1027.28 1027.08 1026.95 1026.87 1026.82 1026.76 1026.66 1026.51 1026.31 1026.06 1025.81 1025.57 1025.37 1025.24 1025.18 1025.17 1025.19 1025.19 1025.15 1025.03 1024.81 1024.50 1024.11 1023.68 1023.23 1022.79 1022.40 1022.07 1021.78 1021.54 1021.32 1021.10 1020.86 1020.61 1020.34
1029.49 1029.40 1029.23 1028.98 1028.68 1028.32 1027.96 1027.62 1027.32 1027.09 1026.93 1026.81 1026.71 1026.62 1026.49 1026.32 1026.10 1025.86 1025.60 1025.36 1025.17 1025.04 1024.97 1024.94 1024.94 1024.93 1024.87 1024.74 1024.53 1024.23 1023.86 1023.45 1023.04 1022.64 1022.29 1021.98 1021.72 1021.49 1021.27 1021.04 1020.79 1020.52 1020.23
1029.46 1029.36 1029.20 1028.96 1028.66 1028.31 1027.95 1027.60 1027.29 1027.03 1026.83 1026.68 1026.55 1026.41 1026.26 1026.07 1025.84 1025.59 1025.33 1025.09 1024.89 1024.75 1024.66 1024.61 1024.58 1024.54 1024.46 1024.32 1024.10 1023.81 1023.47 1023.10 1022.72 1022.38 1022.07 1021.81 1021.58 1021.38 1021.17 1020.95 1020.69 1020.41 1020.10
1029.37 1029.26 1029.09 1028.85 1028.55 1028.20 1027.84 1027.48 1027.15 1026.87 1026.64 1026.46 1026.29 1026.13 1025.95 1025.74 1025.50 1025.24 1024.98 1024.73 1024.53 1024.37 1024.25 1024.18 1024.12 1024.05 1023.94 1023.78 1023.56 1023.28 1022.96 1022.63 1022.31 1022.01 1021.76 1021.54 1021.36 1021.19 1021.00 1020.79 1020.53 1020.23 1019.91
1029.25 1029.12 1028.93 1028.67 1028.36 1028.00 1027.62 1027.25 1026.91 1026.61 1026.36 1026.14 1025.95 1025.76 1025.55 1025.33 1025.08 1024.82 1024.55 1024.30 1024.09 1023.91 1023.78 1023.68 1023.59 1023.49 1023.36 1023.18 1022.96 1022.69 1022.40 1022.10 1021.81 1021.57 1021.36 1021.18 1021.04 1020.89 1020.73 1020.53 1020.28 1019.98 1019.64
1029.13 1028.96 1028.73 1028.45 1028.11 1027.73 1027.34 1026.95 1026.59 1026.27 1025.99 1025.75 1025.53 1025.31 1025.09 1024.86 1024.60 1024.34 1024.08 1023.83 1023.61 1023.43 1023.29 1023.17 1023.06 1022.94 1022.79 1022.60 1022.38 1022.12 1021.84 1021.57 1021.31 1021.10 1020.92 1020.77 1020.65 1020.52 1020.37 1020.18 1019.94 1019.64 1019.31
1029.00 1028.78 1028.51 1028.18 1027.81 1027.41 1027.00 1026.59 1026.21 1025.87 1025.57 1025.30 1025.06 1024.84 1024.60 1024.36 1024.11 1023.85 1023.60 1023.36 1023.15 1022.97 1022.83 1022.70 1022.58 1022.45 1022.30 1022.11 1021.89 1021.64 1021.37 1021.11 1020.87 1020.66 1020.49 1020.36 1020.24 1020.11 1019.97 1019.78 1019.55 1019.26 1018.93
Thickness
5605 5607 5608 5610 5611 5613 5615 5616 5618 5621 5623 5626 5628 5631 5633 5635 5638 5640 5642 5644 5647 5649 5650 5651 5652 5652 5653 5653 5653 5653 5652 5652 5651 5651 5650 5649 5649 5649 5648 5647 5646 5646 5645
5593 5595 5598 5599 5601 5603 5604 5606 5608 5611 5613 5616 5619 5622 5625 5627 5630 5632 5634 5637 5639 5641 5643 5644 5645 5646 5647 5647 5647 5647 5647 5646 5646 5646 5645 5644 5644 5643 5643 5642 5642 5641 5640
5582 5583 5585 5588 5590 5592 5594 5596 5598 5600 5603 5606 5608 5612 5615 5618 5621 5623 5626 5628 5631 5633 5635 5637 5638 5639 5640 5641 5641 5641 5641 5641 5640 5640 5640 5639 5639 5638 5638 5637 5637 5636 5635
5569 5571 5573 5575 5577 5580 5582 5584 5586 5589 5591 5594 5597 5601 5605 5608 5611 5614 5617 5620 5622 5624 5626 5628 5630 5632 5633 5634 5635 5635 5635 5635 5634 5634 5634 5633 5633 5633 5632 5631 5631 5630 5629
5555 5557 5559 5562 5564 5567 5569 5572 5574 5576 5578 5581 5585 5590 5594 5598 5602 5605 5608 5610 5613 5615 5618 5620 5622 5624 5625 5627 5628 5628 5629 5628 5628 5628 5627 5627 5627 5626 5626 5626 5625 5624 5623
5540 5543 5545 5548 5551 5554 5556 5559 5561 5563 5566 5569 5573 5578 5582 5587 5591 5594 5597 5600 5603 5606 5608 5611 5613 5615 5617 5618 5619 5621 5621 5622 5622 5621 5620 5620 5620 5620 5620 5619 5619 5618 5617
5526 5528 5531 5533 5536 5539 5542 5545 5547 5549 5552 5555 5559 5563 5569 5575 5579 5583 5586 5590 5593 5595 5598 5601 5604 5606 5608 5609 5611 5612 5613 5614 5614 5614 5613 5613 5613 5613 5613 5613 5612 5612 5611
5510 5513 5516 5518 5521 5524 5528 5531 5533 5535 5538 5541 5544 5547 5552 5560 5566 5571 5574 5578 5581 5584 5587 5590 5593 5596 5598 5600 5601 5603 5604 5605 5605 5606 5606 5605 5605 5606 5605 5605 5605 5605 5604
5495 5497 5500 5504 5507 5510 5513 5516 5519 5521 5524 5527 5530 5534 5537 5542 5547 5555 5560 5565 5568 5572 5576 5579 5582 5585 5588 5590 5591 5593 5594 5595 5596 5597 5598 5598 5598 5598 5598 5598 5598 5598 5597
5479 5482 5485 5489 5492 5495 5499 5502 5505 5508 5510 5513 5516 5520 5525 5529 5531 5537 5544 5550 5555 5559 5563 5567 5571 5574 5576 5579 5581 5583 5585 5586 5587 5588 5589 5590 5590 5590 5590 5590 5590 5590 5590
5465 5468 5471 5475 5478 5482 5485 5488 5491 5494 5497 5500 5503 5506 5510 5514 5518 5522 5528 5534 5539 5545 5549 5554 5558 5562 5565 5568 5570 5573 5574 5576 5577 5578 5580 5581 5582 5582 5582 5582 5582 5582 5582
5450 5454 5457 5461 5464 5468 5472 5475 5478 5481 5484 5487 5490 5493 5497 5501 5505 5508 5513 5518 5523 5530 5535 5540 5545 5549 5553 5556 5559 5562 5564 5565 5566 5568 5570 5571 5572 5573 5573 5574 5574 5574 5574
5436 5439 5442 5446 5450 5454 5458 5461 5464 5468 5471 5474 5477 5480 5484 5488 5492 5496 5500 5503 5508 5514 5520 5527 5532 5536 5540 5544 5547 5550 5552 5554 5556 5558 5559 5561 5562 5563 5564 5564 5565 5564 5564
5422 5425 5428 5433 5436 5440 5444 5448 5451 5455 5458 5461 5464 5468 5471 5475 5479 5483 5487 5489 5493 5499 5506 5513 5518 5522 5526 5530 5534 5537 5539 5542 5545 5547 5549 5550 5551 5552 5553 5554 5555 5555 5555
5407 5411 5415 5419 5423 5426 5431 5435 5438 5442 5445 5449 5452 5455 5459 5463 5466 5470 5474 5477 5481 5486 5493 5499 5504 5510 5512 5516 5520 5523 5527 5530 5533 5535 5537 5539 5540 5542 5543 5544 5545 5546 5546
5392 5397 5401 5405 5409 5413 5417 5421 5425 5429 5431 5436 5439 5443 5447 5450 5453 5457 5461 5465 5469 5474 5479 5487 5490 5495 5498 5503 5507 5511 5514 5517 5520 5523 5525 5527 5529 5531 5532 5533 5534 5535 5536
5379 5384 5388 5392 5396 5400 5404 5408 5412 5415 5419 5422 5426 5430 5434 5437 5440 5444 5447 5451 5455 5460 5465 5473 5476 5481 5484 5489 5494 5498 5501 5504 5508 5510 5513 5515 5517 5519 5521 5522 5523 5525 5526
5367 5370 5374 5379 5383 5387 5391 5394 5398 5402 5407 5410 5413 5417 5421 5424 5428 5431 5435 5439 5443 5447 5452 5458 5462 5466 5471 5476 5481 5484 5487 5492 5495 5498 5501 5503 5505 5507 5509 5511 5513 5514 5515
5354 5358 5362 5366 5371 5375 5379 5383 5386 5390 5394 5398 5402 5405 5409 5412 5416 5419 5422 5426 5431 5435 5439 5445 5450 5453 5457 5462 5466 5470 5474 5478 5482 5486 5488 5491 5493 5495 5498 5500 5501 5503 5504
5342 5346 5351 5355 5359 5363 5368 5372 5375 5379 5383 5387 5391 5395 5398 5401 5405 5408 5411 5415 5418 5422 5426 5431 5437 5440 5444 5448 5452 5456 5460 5464 5468 5473 5476 5479 5480 5483 5486 5488 5491 5492 5493
5331 5335 5339 5344 5348 5352 5358 5361 5365 5369 5373 5377 5381 5385 5388 5392 5395 5398 5401 5405 5407 5411 5415 5419 5424 5428 5432 5435 5439 5443 5447 5451 5454 5459 5463 5466 5469 5471 5472 5475 5477 5479 5481
5319 5323 5327 5332 5337 5342 5347 5352 5355 5359 5362 5366 5371 5374 5378 5381 5385 5388 5392 5395 5398 5401 5404 5408 5413 5418 5424 5426 5428 5430 5433 5436 5442 5447 5449 5451 5454 5457 5460 5462 5465 5467 5468
5307 5311 5316 5321 5326 5332 5337 5342 5346 5349 5353 5356 5360 5364 5368 5372 5374 5377 5381 5384 5387 5391 5396 5400 5404 5410 5414 5418 5418 5419 5422 5424 5429 5432 5433 5438 5441 5445 5448 5450 5452 5454 5456
5296 5300 5305 5310 5315 5321 5327 5332 5336 5339 5343 5346 5350 5354 5357 5361 5364 5366 5370 5373 5376 5381 5386 5390 5396 5402 5405 5407 5409 5411 5413 5413 5415 5418 5421 5425 5428 5432 5435 5437 5440 5442 5444
5286 5290 5294 5299 5304 5310 5316 5322 5326 5329 5333 5336 5340 5343 5347 5351 5356 5357 5360 5364 5368 5371 5375 5380 5385 5390 5394 5397 5398 5398 5400 5401 5405 5408 5409 5412 5416 5418 5421 5424 5426 5428 5430
5276 5280 5284 5289 5293 5299 5306 5312 5316 5319 5323 5327 5331 5334 5338 5341 5345 5348 5351 5355 5359 5363 5367 5370 5373 5378 5382 5385 5387 5390 5392 5393 5395 5397 5399 5400 5403 5404 5406 5411 5413 5414 5416